Hourly Data Report for May 27, 2015

All times are specified in Local Standard Time (LST). Add 1 hour to adjust for Daylight Saving Time where and when it is observed.

Metadata including Station Name, Province, Latitude, Longitude, Elevation, Climate ID, WMO ID, TC ID
GRANBY
QUEBEC
Latitude: 45°22'22.000" N Longitude: 72°46'26.000" W Elevation: 86.00 m
Climate ID: 7022802 WMO ID: TC ID: MGB
Hourly Data Report for May 27, 2015
Temp Definition
°C

Dew Point Temp Definition
°C

Rel Hum Definition
%

Wind Dir Definition
10's deg
Wind Spd Definition
km/h

Visibility Definition
km

Stn Press Definition
kPa

Hmdx Definition

Wind Chill Definition

Weather Definition

00:00 18.9 16.0 83 23 3 100.60 LegendNANA
01:00 17.5 15.9 90 18 3 100.55 LegendNANA
02:00 21.6 16.5 73 19 6 100.52 27 LegendNANA
03:00 21.1 17.1 78 20 6 100.47 26 LegendNANA
04:00 21.6 17.3 77 20 7 100.50 27 LegendNANA
05:00 21.3 18.4 83 19 6 100.51 28 LegendNANA
06:00 22.1 19.2 84 20 6 100.53 29 LegendNANA
07:00 23.9 19.4 76 20 8 100.52 31 LegendNANA
08:00 24.9 19.3 71 20 12 100.48 32 LegendNANA
09:00 26.2 19.7 68 19 13 100.44 34 LegendNANA
10:00 27.5 20.0 64 20 11 100.42 35 LegendNANA
11:00 28.4 19.9 60 19 13 100.33 36 LegendNANA
12:00 LegendMM 20.7 90 29 18 100.30 LegendNANA
13:00 22.5 21.6 95 18 5 100.29 31 LegendNANA
14:00 22.9 22.1 95 20 8 100.27 32 LegendNANA
15:00 25.4 22.3 83 19 9 100.24 35 LegendNANA
16:00 26.0 21.2 75 21 10 100.21 35 LegendNANA
17:00 25.7 20.6 74 21 10 100.20 34 LegendNANA
18:00 25.1 21.1 78 20 9 100.25 34 LegendNANA
19:00 24.3 20.7 80 20 5 100.26 32 LegendNANA
20:00 22.7 20.2 86 21 6 100.29 30 LegendNANA
21:00 21.4 18.8 86 20 6 100.35 28 LegendNANA
22:00 20.8 18.7 88 20 5 100.38 27 LegendNANA
23:00 20.7 19.0 90 19 6 100.37 27 LegendNANA

Notes on Data Quality.

Legend
  • E = Estimated
  • M = Missing
  • NA = Not Available
  • ‡ = Partner data that is not subject to review by the National Climate Archives